Location: Unspecified
(56.5167°N, 0.0000°E)
Time: 14:44:17
(UTC+02:00)

Okean 3 - Visible Passes

Search period start: 03 August 2020 00:00
Search period end: 13 August 2020 00:00
Orbit: 576 x 601 km, 82.5° (Epoch: 02 August)

Date Brightness Start Highest point End Pass type
(mag) Time Alt. Az. Time Alt. Az. Time Alt. Az.
03 Aug 3.8 01:34:21 10° NNW 01:38:32 58° W 01:40:37 28° SSW visible
04 Aug 4.8 00:05:08 10° N 00:08:54 30° ENE 00:11:49 15° ESE visible
04 Aug 4.2 01:42:15 10° NNW 01:46:18 42° W 01:48:20 25° SSW visible
05 Aug 4.3 00:12:49 10° N 00:16:51 39° ENE 00:19:32 19° SE visible
05 Aug 4.7 01:50:14 10° NNW 01:54:02 32° W 01:56:03 21° SW visible
05 Aug 5.9 22:45:30 10° NE 22:46:27 11° NE 22:47:23 10° ENE visible
06 Aug 3.9 00:20:33 10° N 00:24:45 52° ENE 00:27:16 22° SE visible
06 Aug 5.1 01:58:17 10° NNW 02:01:43 24° W 02:03:47 17° SW visible
06 Aug 5.7 22:52:21 10° NNE 22:54:32 14° NE 22:56:43 10° E visible
07 Aug 3.5 00:28:20 10° N 00:32:37 71° ENE 00:35:00 26° SSE visible
07 Aug 5.5 02:06:27 10° NW 02:09:23 18° W 02:11:30 13° WSW visible
07 Aug 5.5 22:59:43 10° NNE 23:02:35 17° ENE 23:05:27 10° E visible
08 Aug 3.4 00:36:09 10° NNW 00:40:27 86° W 00:42:45 27° S visible
08 Aug 5.9 02:14:50 10° NW 02:17:01 14° W 02:19:12 10° WSW visible
08 Aug 5.2 23:07:14 10° N 23:10:36 22° ENE 23:13:57 10° ESE visible
09 Aug 3.7 00:44:00 10° NNW 00:48:15 63° W 00:50:31 26° S visible
09 Aug 6.1 02:24:03 10° WNW 02:24:37 10° WNW 02:25:10 10° W visible
09 Aug 4.8 23:14:51 10° N 23:18:35 28° ENE 23:21:46 13° ESE visible
10 Aug 4.2 00:51:54 10° NNW 00:56:02 46° W 00:58:17 24° SSW visible
10 Aug 4.4 23:22:32 10° N 23:26:31 36° ENE 23:29:33 16° SE visible
11 Aug 4.7 00:59:52 10° NNW 01:03:46 34° W 01:06:04 20° SW visible
11 Aug 4.0 23:30:15 10° N 23:34:26 48° ENE 23:37:20 18° SE visible
12 Aug 5.2 01:07:53 10° NNW 01:11:28 26° W 01:13:52 16° SW visible
12 Aug 3.6 23:38:01 10° N 23:42:18 65° ENE 23:45:09 21° SSE visible
